Aérodrome :
LOGIN :

S'inscrire | Disclaimer

   EN    FR    IT 

 










Légende :    VFR   VFR Marginal   IFR   IFR Intensif   IFR Très Intensif
Visi : 
Plafond : 
>= 8 km
>= 3000ft
5 à 8 km
1000 à 3000 ft
1500m à 5 km
500 à 1000 ft
800 à 1500m
200 à 500 ft
< 800m
< 200 ft
Symboles :   Orages  Brouillard  Fortes neiges  Fortes précipitations  Vent > 20 kt
SIGMETs :   Divers  Orages  Givrage  Turbulence  Onde Orograph.  Cendres Volcan.







- Altitude de l'aérodrome : 446 ft
- Code IATA : VNE
- Voir les cartes d'approche


LFRV - Vannes-Meucon

DERNIER METAR :
  • 222100Z AUTO 25004KT CAVOK 11/09 Q1025

METARs EXPIRÉS :
  • 222030Z AUTO 25004KT 210V270 CAVOK 11/09 Q1025
  • 222000Z AUTO VRB03KT 9999 SCT044 BKN120 OVC220 11/08 Q1024
  • 221930Z AUTO 26004KT 230V300 9999 OVC037 12/08 Q1025
  • 221900Z AUTO 26004KT 9999 OVC044 11/08 Q1025
  • 221830Z AUTO 25004KT 210V270 9999 SCT045 BKN230 11/07 Q1025

TAF N/A
Pas de NOTAMs connus pour ce terrain.



MET'MAP, la Météo Aéronautique d'un coup d'oeil ! - Copyright ORBIFLY Décembre 2007 - Disclaimer

ORBIFLY MET'MAP TEAM :

Programmation & Développement : Alexandra Zaïnal
Conception & Développement : Baudouin d'Aumeries
Co-Programmation & Développement : Marc-Olivier Méhu
Soutien technique & logistique : Manuel Goepfert

Contact : metmap@orbifly.com




SOURCES & CREDITS :

   NOAA